DW0243 Weather Reports


time (UTC)temp
C
wind
direction
speed
KPH
gust
KPH
rain 1hr
cm
rain 24hr
cm
rain mn
cm
humidity
%
barometer
mb
20260906195606 13 78 0.0 0.0 0.00 0.00 0.00 83 1024.3
20260906194607 13 78 0.0 0.0 0.00 0.00 0.00 83 1024.4
20260906193605 14 78 0.0 0.0 0.00 0.00 0.00 82 1024.4
20260906192618 14 78 0.0 0.0 0.00 0.00 0.00 81 1024.3
20260906191603 14 78 0.0 0.0 0.00 0.00 0.00 80 1024.4
20260906184603 15 78 0.0 0.0 0.00 0.00 0.00 77 1024.6
20260906182604 16 78 0.0 4.8 0.00 0.00 0.00 72 1024.5
20260906181601 17 78 0.0 0.0 0.00 0.00 0.00 71 1024.3
20260906180600 17 78 0.0 3.2 0.00 0.00 0.00 69 1024.4
20260906175600 18 78 0.0 4.8 0.00 0.00 0.00 67 1024.5
20260906174608 19 78 0.0 1.6 0.00 0.00 0.00 66 1024.6
20260906173601 20 78 0.0 1.6 0.00 0.00 0.00 62 1024.5
20260906172615 20 78 0.0 0.0 0.00 0.00 0.00 56 1024.5
20260906171604 21 78 0.0 4.8 0.00 0.00 0.00 56 1024.5
20260906170610 21 78 0.0 3.2 0.00 0.00 0.00 54 1024.5
20260906165600 21 78 0.0 4.8 0.00 0.00 0.00 53 1024.5
20260906164558 21 78 1.6 6.4 0.00 0.00 0.00 53 1024.5
20260906163558 21 78 3.2 8.0 0.00 0.00 0.00 52 1024.5
20260906162603 21 72 1.6 6.4 0.00 0.00 0.00 52 1024.6
20260906161608 21 96 3.2 9.7 0.00 0.00 0.00 51 1024.8
20260906160600 21 92 4.8 11.3 0.00 0.00 0.00 51 1024.7
20260906155558 21 94 6.4 9.7 0.00 0.00 0.00 50 1024.8
20260906154558 21 80 3.2 11.3 0.00 0.00 0.00 43 1025.1
20260906153558 21 95 3.2 9.7 0.00 0.00 0.00 51 1025.0
20260906152604 22 110 0.0 6.4 0.00 0.00 0.00 51 1025.0
20260906150559 22 135 3.2 12.9 0.00 0.00 0.00 49 1025.2
20260906144558 22 115 1.6 11.3 0.00 0.00 0.00 48 1025.3
20260906143600 22 113 1.6 6.4 0.00 0.00 0.00 42 1025.5
20260906142555 22 139 1.6 8.0 0.00 0.00 0.00 51 1025.6
20260906141556 21 67 3.2 9.7 0.00 0.00 0.00 49 1025.6
20260906140556 22 74 1.6 6.4 0.00 0.00 0.00 43 1025.7
20260906135559 22 121 0.0 8.0 0.00 0.00 0.00 49 1025.7
20260906134603 22 86 0.0 9.7 0.00 0.00 0.00 49 1026.0
20260906131557 22 136 1.6 12.9 0.00 0.00 0.00 49 1026.1
20260906130555 21 78 1.6 11.3 0.00 0.00 0.00 48 1026.2
20260906125559 22 111 3.2 8.0 0.00 0.00 0.00 44 1026.3
20260906124555 22 109 1.6 11.3 0.00 0.00 0.00 52 1026.3
20260906123554 21 126 1.6 11.3 0.00 0.00 0.00 51 1026.4
20260906122554 21 86 4.8 12.9 0.00 0.00 0.00 51 1026.5
20260906121557 21 84 3.2 12.9 0.00 0.00 0.00 50 1026.6
20260906120602 21 138 3.2 11.3 0.00 0.00 0.00 52 1026.7
20260906115554 21 128 1.6 8.0 0.00 0.00 0.00 54 1026.8
20260906114553 20 153 3.2 12.9 0.00 0.00 0.00 48 1026.9
20260906113551 20 156 1.6 14.5 0.00 0.00 0.00 56 1027.1
20260906112550 21 122 0.0 14.5 0.00 0.00 0.00 56 1027.0
20260906111552 20 147 0.0 11.3 0.00 0.00 0.00 53 1027.2
20260906110556 19 182 3.2 9.7 0.00 0.00 0.00 53 1027.2
20260906104553 19 149 1.6 4.8 0.00 0.00 0.00 63 1027.4
20260906103550 19 147 1.6 8.0 0.00 0.00 0.00 55 1027.6
20260906102603 18 113 0.0 11.3 0.00 0.00 0.00 65 1027.6
20260906101551 18 98 1.6 4.8 0.00 0.00 0.00 68 1027.7
20260906100553 18 96 1.6 6.4 0.00 0.00 0.00 69 1027.7
20260906095552 18 92 1.6 6.4 0.00 0.00 0.00 64 1028.0
20260906094554 17 93 0.0 3.2 0.00 0.00 0.00 74 1027.8
20260906093558 17 93 0.0 4.8 0.00 0.00 0.00 72 1028.0
20260906092552 17 93 3.2 9.7 0.00 0.00 0.00 74 1028.2
20260906091550 17 135 3.2 6.4 0.00 0.00 0.00 74 1028.3
20260906090550 17 156 1.6 3.2 0.00 0.00 0.00 75 1028.3
20260906085548 17 156 0.0 4.8 0.00 0.00 0.00 77 1028.1
20260906084609 16 157 0.0 3.2 0.00 0.00 0.00 77 1028.2
20260906082549 15 250 0.0 0.0 0.00 0.00 0.00 82 1028.3
20260906081547 15 250 0.0 0.0 0.00 0.00 0.00 85 1028.2
20260906080549 14 250 0.0 0.0 0.00 0.00 0.00 90 1028.3
20260906075549 13 250 0.0 0.0 0.00 0.00 0.00 93 1028.3
20260906074547 12 250 0.0 0.0 0.00 0.00 0.00 94 1028.3
20260906073547 11 250 0.0 0.0 0.00 0.00 0.00 93 1028.3
20260906072547 11 250 0.0 1.6 0.00 0.00 0.00 92 1028.3
20260906071547 10 250 0.0 0.0 0.00 0.00 0.00 91 1028.1
20260906070606 8 250 0.0 0.0 0.00 0.00 0.00 92 1028.1
20260906065545 8 250 0.0 0.0 0.00 0.00 0.00 92 1028.1
20260906064546 8 250 0.0 0.0 0.00 0.00 0.00 92 1028.1
20260906062546 7 250 0.0 0.0 0.00 0.00 0.00 92 1028.3
20260906061546 7 250 0.0 0.0 0.00 0.00 0.00 93 1028.1
20260906060553 7 250 0.0 0.0 0.00 0.00 0.00 93 1028.2
20260906055547 7 250 0.0 0.0 0.00 0.00 0.00 93 1028.3
20260906052537 7 250 0.0 0.0 0.00 0.00 0.00 93 1028.1
20260906051536 7 250 0.0 0.0 0.00 0.00 0.00 93 1028.0
20260906050532 6 250 0.0 0.0 0.00 0.00 0.00 93 1028.0
20260906045530 7 250 0.0 0.0 0.00 0.00 0.00 93 1028.0
20260906044530 7 250 0.0 0.0 0.00 0.00 0.00 94 1028.0
20260906042530 7 250 0.0 0.0 0.00 0.00 0.00 94 1028.0
20260906041529 6 250 0.0 0.0 0.00 0.00 0.00 94 1028.0
20260906040530 6 250 0.0 0.0 0.00 0.00 0.00 94 1027.8
20260906035532 6 250 0.0 0.0 0.00 0.00 0.00 94 1027.7
20260906034536 6 250 0.0 0.0 0.00 0.03 0.00 94 1027.8
20260906032530 7 250 0.0 0.0 0.00 0.03 0.00 94 1027.6
20260906031529 7 250 0.0 0.0 0.00 0.03 0.00 94 1027.6
20260906030538 7 250 0.0 0.0 0.00 0.03 0.00 94 1027.7
20260906025532 7 250 0.0 0.0 0.00 0.03 0.00 94 1027.6
20260906024530 7 250 0.0 0.0 0.00 0.03 0.00 94 1027.8
20260906023533 7 250 0.0 0.0 0.00 0.03 0.00 94 1027.8
20260906022531 8 250 0.0 0.0 0.00 0.03 0.00 94 1027.7
20260906021532 8 250 0.0 0.0 0.00 0.03 0.00 94 1027.7
20260906014527 8 250 0.0 0.0 0.00 0.03 0.00 94 1027.6
20260906013525 8 250 0.0 0.0 0.00 0.03 0.00 94 1027.6
20260906012526 8 250 0.0 0.0 0.00 0.03 0.00 94 1027.4
20260906011516 8 250 0.0 0.0 0.00 0.03 0.00 94 1027.4
20260906010512 8 250 0.0 0.0 0.00 0.03 0.00 94 1027.3
20260906005510 8 250 0.0 0.0 0.00 0.03 0.00 94 1027.2
20260906003520 9 250 0.0 0.0 0.00 0.03 0.00 94 1027.2
20260906002509 9 250 0.0 0.0 0.00 0.03 0.00 94 1027.0
20260906001509 9 250 0.0 0.0 0.00 0.03 0.00 94 1027.0
20260906000511 10 250 0.0 0.0 0.00 0.03 0.00 94 1027.1
20260905235517 10 250 0.0 0.0 0.00 0.03 0.00 94 1027.1
20260905234511 10 250 0.0 0.0 0.00 0.03 0.00 94 1027.1
20260905232509 10 250 0.0 3.2 0.00 0.03 0.00 94 1027.1
20260905224508 10 251 0.0 0.0 0.00 0.03 0.00 93 1026.6
20260905223506 11 251 0.0 0.0 0.00 0.03 0.00 93 1026.7
20260905222520 11 251 0.0 0.0 0.00 0.03 0.00 93 1026.6
20260905221508 11 251 0.0 0.0 0.00 0.03 0.00 92 1026.6
20260905220508 11 251 0.0 0.0 0.00 0.03 0.00 92 1026.4
20260905214518 12 251 0.0 0.0 0.00 0.03 0.03 91 1026.4
20260905213508 12 251 0.0 0.0 0.00 0.03 0.03 91 1026.3
20260905212506 12 251 0.0 0.0 0.00 0.05 0.03 91 1026.3
20260905205511 13 251 0.0 0.0 0.00 0.05 0.03 89 1026.0
20260905204507 13 251 0.0 0.0 0.00 0.05 0.03 87 1026.0
20260905203504 13 251 0.0 0.0 0.00 0.05 0.03 87 1026.0
20260905202503 13 251 0.0 4.8 0.00 0.05 0.03 86 1026.0
20260905201514 14 258 0.0 0.0 0.00 0.05 0.03 84 1025.9
20260905200504 15 258 0.0 0.0 0.00 0.05 0.03 83 1025.8